Mount Airy, NC

5:51 AM EDT on August 24, 2019 (GMT -0400)
Mount Airy-Surry County

Weather History for KMWK - May, 2019

Change the Weather History Date:

Saturday, May 25, 2019

  Actual Average (KINT) Record (KINT)
Temperature  
Mean Temperature 77 °F -  
Max Temperature 88 °F 76 °F 91 °F (1975)
Min Temperature 66 °F 57 °F 41 °F (2013)
Cooling Degree Days 12    
Growing Degree Days 27 (Base 50)    
Moisture  
Dew Point 69 °F    
Average Humidity 75    
Maximum Humidity 91    
Minimum Humidity 55    
Precipitation  
Precipitation 0.00 in - - ()
Sea Level Pressure  
Sea Level Pressure 30.16 in    
Wind  
Wind Speed 1 mph ()    
Max Wind Speed 7 mph    
Max Gust Speed -    
Visibility 10.0 miles    
Events      
Averages and records for this station are not official NWS values.
T = Trace of Precipitation, MM = Missing Value Source: Averaged Metar Reports

Daily Weather History Graph

Daily Weather History Graph

Search for Another Location

Airport or City:

Astronomy

May. 25, 2019 Rise Set
Actual Time 6:08 AM EDT 8:29 PM EDT
Civil Twilight 5:39 AM EDT 8:59 PM EDT
Nautical Twilight 5:03 AM EDT 9:35 PM EDT
Astronomical Twilight 4:23 AM EDT 10:15 PM EDT
Moon 1:31 AM EDT (5/25) 12:04 PM EDT (5/25)
Length of Visible Light 15h 20m
Length of Day
14h 21m
Waning Gibbous, 60% of the Moon is Illuminated
May 25
Waning Gibbous
May 26
Last Quarter
Jun 3
New
Jun 10
First Quarter
Jun 17
Full

Hourly Weather History & Observations

Time (EDT) Temp. Heat Index Dew Point Humidity Pressure Visibility Wind Dir Wind Speed Gust Speed Precip Events Conditions
12:00 AM 73.8 °F - 67.8 °F 82% 30.15 in 10.0 mi Calm Calm - N/A   Clear
12:20 AM 72.7 °F - 67.3 °F 83% 30.15 in 10.0 mi Calm Calm - N/A   Clear
12:40 AM 72.7 °F - 67.5 °F 84% 30.15 in 10.0 mi Calm Calm - N/A   Clear
1:00 AM 72.3 °F - 67.5 °F 85% 30.15 in 10.0 mi Calm Calm - N/A   Clear
1:20 AM 71.2 °F - 66.7 °F 86% 30.14 in 10.0 mi Calm Calm - N/A   Clear
1:40 AM 71.1 °F - 66.6 °F 86% 30.14 in 10.0 mi Calm Calm - N/A   Clear
2:00 AM 71.2 °F - 66.7 °F 86% 30.13 in 10.0 mi Calm Calm - N/A   Clear
2:20 AM 70.0 °F - 66.0 °F 87% 30.13 in 10.0 mi Calm Calm - N/A   Clear
2:40 AM 69.8 °F - 66.2 °F 88% 30.14 in 10.0 mi Calm Calm - N/A   Clear
3:00 AM 70.0 °F - 66.2 °F 88% 30.14 in 10.0 mi Calm Calm - N/A   Clear
3:20 AM 69.8 °F - 66.2 °F 88% 30.15 in 10.0 mi Calm Calm - N/A   Clear
3:40 AM 68.5 °F - 65.3 °F 89% 30.15 in 10.0 mi Calm Calm - N/A   Clear
4:00 AM 68.0 °F - 64.9 °F 90% 30.16 in 10.0 mi Calm Calm - N/A   Clear
4:20 AM 68.2 °F - 65.1 °F 90% 30.16 in 10.0 mi Calm Calm - N/A   Clear
4:40 AM 68.0 °F - 65.1 °F 90% 30.16 in 10.0 mi Calm Calm - N/A   Clear
5:00 AM 67.5 °F - 64.4 °F 90% 30.17 in 10.0 mi Calm Calm - N/A   Clear
5:20 AM 67.1 °F - 64.2 °F 90% 30.18 in 10.0 mi Calm Calm - N/A   Clear
5:40 AM 67.3 °F - 64.4 °F 90% 30.18 in 10.0 mi Calm Calm - N/A   Scattered Clouds
6:00 AM 67.5 °F - 64.6 °F 90% 30.19 in 10.0 mi Calm Calm - N/A   Scattered Clouds
6:20 AM 67.3 °F - 64.6 °F 91% 30.19 in 10.0 mi Calm Calm - N/A   Scattered Clouds
6:40 AM 66.9 °F - 64.0 °F 90% 30.20 in 7.0 mi Calm Calm - N/A   Clear
7:00 AM 67.5 °F - 64.4 °F 90% 30.20 in 10.0 mi Calm Calm - N/A   Clear
7:20 AM 69.1 °F - 65.8 °F 89% 30.20 in 10.0 mi Calm Calm - N/A   Clear
7:40 AM 71.2 °F - 67.6 °F 88% 30.21 in 10.0 mi Calm Calm - N/A   Clear
8:00 AM 72.5 °F - 68.0 °F 86% 30.21 in 10.0 mi NW 3.5 mph - N/A   Clear
8:20 AM 73.0 °F - 68.4 °F 85% 30.21 in 10.0 mi Calm Calm - N/A   Clear
8:40 AM 75.0 °F - 69.3 °F 82% 30.22 in 10.0 mi Calm Calm - N/A   Clear
9:00 AM 77.4 °F - 71.1 °F 81% 30.22 in 10.0 mi Calm Calm - N/A   Clear
9:20 AM 78.6 °F - 70.9 °F 77% 30.22 in 10.0 mi Calm Calm - N/A   Clear
9:40 AM 79.0 °F - 71.6 °F 78% 30.22 in 10.0 mi Calm Calm - N/A   Clear
10:00 AM 79.9 °F - 72.0 °F 77% 30.22 in 10.0 mi Calm Calm - N/A   Clear
10:20 AM 80.4 °F 84.1 °F 71.1 °F 73% 30.23 in 10.0 mi Calm Calm - N/A   Clear
10:40 AM 81.5 °F 85.5 °F 70.9 °F 70% 30.23 in 10.0 mi SE 3.5 mph - N/A   Clear
11:00 AM 82.6 °F 87.1 °F 71.2 °F 68% 30.23 in 10.0 mi Calm Calm - N/A   Clear
11:20 AM 83.8 °F 88.9 °F 71.4 °F 66% 30.22 in 10.0 mi SSE 3.5 mph - N/A   Scattered Clouds
11:40 AM 83.3 °F 88.2 °F 71.4 °F 67% 30.22 in 10.0 mi Calm Calm - N/A   Clear
12:00 PM 84.2 °F 89.9 °F 72.3 °F 67% 30.22 in 10.0 mi SE 3.5 mph - N/A   Clear
12:20 PM 85.1 °F 90.1 °F 70.9 °F 62% 30.22 in 10.0 mi South 3.5 mph - N/A   Scattered Clouds
12:40 PM 85.6 °F 90.8 °F 70.9 °F 61% 30.21 in 10.0 mi South 3.5 mph - N/A   Scattered Clouds
1:00 PM 86.9 °F 92.9 °F 71.6 °F 60% 30.19 in 10.0 mi ESE 3.5 mph - N/A   Clear
1:20 PM 86.2 °F 91.4 °F 70.9 °F 60% 30.19 in 10.0 mi ESE 5.8 mph - N/A   Clear
1:40 PM 86.4 °F 91.1 °F 70.0 °F 58% 30.18 in 10.0 mi SW 3.5 mph - N/A   Clear
2:00 PM 86.7 °F 92.1 °F 70.9 °F 59% 30.17 in 10.0 mi SSW 3.5 mph - N/A   Scattered Clouds
2:20 PM 88.5 °F 94.0 °F 70.5 °F 55% 30.17 in 10.0 mi SSE 5.8 mph - N/A   Clear
2:40 PM 88.3 °F 94.1 °F 70.7 °F 56% 30.16 in 10.0 mi SW 6.9 mph - N/A   Scattered Clouds
3:00 PM 88.0 °F 93.8 °F 71.2 °F 57% 30.15 in 10.0 mi South 5.8 mph - N/A   Clear
3:20 PM 87.8 °F 93.4 °F 70.9 °F 57% 30.14 in 10.0 mi SSE 5.8 mph - N/A   Scattered Clouds
3:40 PM 87.4 °F 92.7 °F 70.5 °F 57% 30.14 in 10.0 mi SSE 4.6 mph - N/A   Scattered Clouds
4:00 PM 86.9 °F 92.1 °F 70.5 °F 58% 30.13 in 10.0 mi SSE 6.9 mph - N/A   Scattered Clouds
4:20 PM 86.9 °F 92.5 °F 71.1 °F 59% 30.13 in 10.0 mi SW 6.9 mph - N/A   Scattered Clouds
4:40 PM 86.0 °F 90.7 °F 70.3 °F 59% 30.13 in 10.0 mi NNW 4.6 mph - N/A   Scattered Clouds
5:00 PM 85.8 °F 92.6 °F 72.9 °F 65% 30.13 in 10.0 mi WNW 3.5 mph - N/A   Scattered Clouds
5:20 PM 87.3 °F 93.6 °F 72.0 °F 60% 30.13 in 10.0 mi Calm Calm - N/A   Scattered Clouds
5:40 PM 87.8 °F 93.8 °F 71.4 °F 58% 30.12 in 10.0 mi South 5.8 mph - N/A   Clear
6:00 PM 87.8 °F 93.8 °F 71.2 °F 58% 30.12 in 10.0 mi South 4.6 mph - N/A   Clear
6:20 PM 87.1 °F 93.2 °F 71.6 °F 60% 30.12 in 10.0 mi SSE 3.5 mph - N/A   Scattered Clouds
6:40 PM 86.7 °F 92.9 °F 71.8 °F 61% 30.12 in 10.0 mi Calm Calm - N/A   Clear
7:00 PM 86.9 °F 92.9 °F 71.6 °F 60% 30.12 in 10.0 mi SW 3.5 mph - N/A   Scattered Clouds
7:20 PM 85.8 °F 92.2 °F 72.3 °F 64% 30.11 in 10.0 mi Calm Calm - N/A   Scattered Clouds
7:40 PM 84.7 °F 91.0 °F 72.7 °F 67% 30.12 in 10.0 mi Calm Calm - N/A   Scattered Clouds
8:00 PM 84.6 °F 90.3 °F 72.1 °F 66% 30.12 in 10.0 mi Calm Calm - N/A   Clear
8:20 PM 83.5 °F 89.1 °F 72.5 °F 69% 30.13 in 10.0 mi Calm Calm - N/A   Scattered Clouds
8:40 PM 82.6 °F 88.6 °F 73.4 °F 74% 30.13 in 10.0 mi Calm Calm - N/A   Scattered Clouds
9:00 PM 80.8 °F 85.1 °F 72.1 °F 75% 30.13 in 10.0 mi SW 4.6 mph - N/A   Clear
9:20 PM 80.8 °F 84.6 °F 71.1 °F 72% 30.14 in 10.0 mi Calm Calm - N/A   Clear
9:40 PM 80.1 °F 83.4 °F 70.9 °F 73% 30.14 in 10.0 mi Calm Calm - N/A   Clear
10:00 PM 78.1 °F - 70.3 °F 77% 30.14 in 10.0 mi Calm Calm - N/A   Clear
10:20 PM 77.4 °F - 70.5 °F 79% 30.15 in 10.0 mi Calm Calm - N/A   Clear
10:40 PM 76.1 °F - 70.0 °F 81% 30.15 in 10.0 mi Calm Calm - N/A   Clear
11:00 PM 74.3 °F - 69.3 °F 84% 30.15 in 10.0 mi Calm Calm - N/A   Clear
11:20 PM 74.3 °F - 69.3 °F 84% 30.15 in 10.0 mi Calm Calm - N/A   Clear
11:40 PM 72.9 °F - 68.9 °F 87% 30.15 in 10.0 mi Calm Calm - N/A   Clear